Tracking 26325 objects as of 29-Nov-2022
HD Live streaming from Space Station
objects crossing your sky now

COSMOS 1375 DEB

Track COSMOS 1375 DEB now!
10-day predictions


NORAD ID: 17804
Int'l Code: 1982-055AW
Perigee: 898.5 km
Apogee: 921.0 km
Inclination: 65.8 °
Period: 103.0 minutes
Semi major axis: 7280 km
RCS: 0.0158 m2 (small)
Launch date: June 6, 1982
Source: Commonwealth of Independent States (former USSR) (CIS)
Launch site: PLESETSK MISSILE AND SPACE COMPLEX (PKMTR)

Note: This is SATELLITE DEBRIS
aabbcc
Your satellite tracking list
Your tracking list is empty




NASA's NSSDC Master Catalog

Two Line Element Set (TLE):
1 17804U 82055AW  22332.52979491  .00001073  00000-0  82181-3 0  9992
2 17804  65.8176 102.7185 0015427 180.1048 253.3421 13.97465185875829
Source of the keplerian elements: AFSPC